QPF
0.00 0.00 0.00 0.01 0.00 0.00 0.00 0.00 0.00 0.01 0.01 0.01 0.01 0.01 0.01 0.01 0.01 0.01 0.01 0.01 0.01 0.01 0.01 0.01 0.01 0.01 0.01 0.02 0.02 0.02 0.02 0.01 0.02 0.02 0.02 0.01 0.01 0.01 0.01 0.01 0.01 0.01 0.01
0.01 0.01 0.01 0.01 0.00 0.00 0.00 0.00 0.01 0.01 0.01 0.01 0.01 0.01 0.01 0.01 0.00 0.00 0.01 0.01 0.01 0.01 0.02 0.02 0.02 0.01 0.01 0.01 0.02 0.01 0.02 0.02 0.01 0.01 0.01 0.01 0.01 0.01 0.01 0.01 0.01 0.00 0.01
0.01 0.01 0.02 0.01 0.01 0.01 0.00 0.00 0.00 0.01 0.01 0.01 0.01 0.01 0.01 0.01 0.01 0.01 0.01 0.01 0.01 0.01 0.01 0.01 0.01 0.01 0.01 0.01 0.01 0.02 0.02 0.02 0.01 0.01 0.01 0.01 0.01 0.01 0.01 0.01 0.00 0.00 0.01
0.00 0.01 0.01 0.01 0.01 0.01 0.02 0.01 0.01 0.00 0.00 0.01 0.01 0.01 0.01 0.01 0.01 0.01 0.00 0.01 0.01 0.01 0.01 0.01 0.01 0.01 0.01 0.01 0.01 0.02 0.03 0.03 0.02 0.01 0.01 0.01 0.01 0.01 0.01 0.01 0.00 0.00 0.00
0.00 0.00 0.01 0.01 0.01 0.01 0.01 0.01 0.01 0.00 0.01 0.01 0.01 0.01 0.01 0.01 0.01 0.01 0.01 0.01 0.01 0.01 0.01 0.01 0.02 0.02 0.01 0.01 0.01 0.01 0.02 0.03 0.03 0.02 0.02 0.01 0.01 0.02 0.01 0.01 0.00 0.00 0.00
0.00 0.01 0.01 0.01 0.01 0.01 0.01 0.01 0.01 0.01 0.01 0.01 0.01 0.01 0.01 0.01 0.02 0.02 0.01 0.01 0.01 0.01 0.01 0.01 0.02 0.02 0.02 0.02 0.01 0.01 0.02 0.02 0.03 0.03 0.03 0.02 0.03 0.03 0.03 0.02 0.01 0.01 0.00
0.01 0.01 0.01 0.01 0.01 0.01 0.01 0.01 0.00 0.00 0.01 0.01 0.01 0.01 0.01 0.01 0.02 0.02 0.02 0.01 0.01 0.00 0.00 0.01 0.01 0.01 0.01 0.01 0.01 0.01 0.01 0.02 0.03 0.02 0.03 0.02 0.02 0.02 0.02 0.01 0.01 0.01 0.00
0.02 0.02 0.01 0.01 0.01 0.01 0.01 0.00 0.00 0.00 0.00 0.01 0.01 0.01 0.01 0.02 0.02 0.01 0.01 0.01 0.01 0.01 0.01 0.00 0.01 0.01 0.01 0.01 0.01 0.00 0.00 0.01 0.01 0.01 0.01 0.01 0.01 0.01 0.01 0.01 0.01 0.01 0.01
0.01 0.01 0.02 0.01 0.02 0.02 0.01 0.01 0.00 0.00 0.01 0.01 0.02 0.02 0.01 0.02 0.02 0.01 0.00 0.00 0.01 0.01 0.01 0.01 0.01 0.01 0.01 0.01 0.01 0.01 0.01 0.01 0.01 0.01 0.01 0.02 0.02 0.02 0.01 0.01 0.01 0.01 0.01
0.01 0.02 0.02 0.02 0.02 0.02 0.02 0.01 0.01 0.02 0.02 0.02 0.02 0.02 0.01 0.01 0.01 0.00 0.00 0.00 0.00 0.01 0.01 0.01 0.01 0.01 0.02 0.02 0.01 0.01 0.00 0.00 0.01 0.01 0.01 0.01 0.01 0.01 0.02 0.01 0.01 0.01 0.01
0.01 0.01 0.02 0.03 0.04 0.03 0.02 0.02 0.02 0.02 0.02 0.02 0.02 0.02 0.01 0.00 0.00 0.00 0.00 0.00 0.00 0.00 0.01 0.01 0.01 0.01 0.01 0.01 0.01 0.01 0.00 0.00 0.00 0.00 0.00 0.00 0.00 0.00 0.01 0.01 0.01 0.01 0.00
0.01 0.02 0.02 0.02 0.03 0.03 0.03 0.03 0.02 0.02 0.02 0.02 0.02 0.02 0.01 0.00 0.00 0.00 0.00 0.00 0.00 0.00 0.00 0.00 0.00 0.00 0.00 0.00 0.00 0.00 0.00 0.00 0.00 0.00 0.00 0.00 0.00 0.00 0.01 0.01 0.01 0.00 0.00
0.01 0.01 0.01 0.01 0.02 0.03 0.03 0.03 0.03 0.02 0.02 0.01 0.01 0.02 0.02 0.01 0.01 0.01 0.00 0.00 0.00 0.00 0.00 0.00 0.00 0.00 0.00 0.00 0.00 0.00 0.00 0.00 0.00 0.00 0.00 0.00 0.00 0.00 0.00 0.00 0.00 0.00 0.00
0.01 0.01 0.01 0.02 0.02 0.02 0.03 0.03 0.03 0.02 0.02 0.01 0.01 0.01 0.01 0.01 0.01 0.01 0.01 0.00 0.00 0.00 0.01 0.01 0.00 0.00 0.00 0.00 0.00 0.00 0.00 0.00 0.00 0.00 0.00 0.00 0.00 0.00 0.00 0.00 0.00 0.00 0.00
0.01 0.01 0.01 0.01 0.01 0.02 0.02 0.02 0.02 0.02 0.03 0.03 0.02 0.01 0.01 0.00 0.01 0.01 0.01 0.01 0.01 0.01 0.01 0.01 0.00 0.00 0.00 0.00 0.00 0.00 0.00 0.00 0.00 0.00 0.00 0.00 0.00 0.00 0.00 0.00 0.00 0.00 0.00
0.01 0.01 0.01 0.01 0.01 0.01 0.01 0.01 0.02 0.02 0.03 0.04 0.04 0.03 0.02 0.02 0.01 0.01 0.00 0.01 0.01 0.01 0.01 0.00 0.00 0.00 0.00 0.00 0.00 0.00 0.00 0.00 0.00 0.00 0.00 0.00 0.00 0.00 0.00 0.00 0.00 0.00 0.00
0.01 0.01 0.01 0.01 0.01 0.01 0.01 0.01 0.01 0.01 0.02 0.02 0.03 0.04 0.03 0.03 0.02 0.01 0.01 0.00 0.00 0.00 0.00 0.00 0.00 0.00 0.00 0.00 0.00 0.00 0.00 0.00 0.01 0.01 0.00 0.00 0.00 0.00 0.00 0.00 0.00 0.00 0.00
0.02 0.01 0.01 0.01 0.02 0.02 0.03 0.02 0.02 0.01 0.01 0.01 0.02 0.03 0.03 0.03 0.03 0.03 0.02 0.01 0.01 0.00 0.01 0.01 0.01 0.01 0.01 0.01 0.01 0.01 0.01 0.01 0.01 0.01 0.01 0.01 0.02 0.02 0.01 0.01 0.01 0.01 0.01
0.02 0.02 0.02 0.02 0.03 0.03 0.03 0.02 0.02 0.02 0.01 0.01 0.01 0.02 0.02 0.02 0.03 0.04 0.04 0.02 0.02 0.02 0.02 0.02 0.02 0.02 0.02 0.01 0.01 0.01 0.01 0.01 0.01 0.01 0.01 0.01 0.02 0.02 0.01 0.01 0.01 0.01 0.01
0.01 0.02 0.02 0.02 0.02 0.03 0.02 0.02 0.02 0.02 0.01 0.01 0.01 0.01 0.01 0.01 0.02 0.02 0.03 0.03 0.02 0.02 0.02 0.03 0.03 0.02 0.02 0.02 0.02 0.01 0.01 0.01 0.01 0.01 0.01 0.01 0.01 0.02 0.02 0.02 0.01 0.01 0.01
0.01 0.02 0.02 0.02 0.01 0.02 0.03 0.03 0.03 0.03 0.02 0.03 0.02 0.03 0.03 0.02 0.01 0.01 0.01 0.01 0.01 0.01 0.02 0.02 0.03 0.03 0.02 0.02 0.02 0.01 0.01 0.01 0.01 0.01 0.01 0.01 0.01 0.02 0.02 0.02 0.02 0.02 0.02
0.01 0.02 0.02 0.01 0.02 0.02 0.02 0.03 0.03 0.04 0.04 0.04 0.04 0.04 0.03 0.02 0.01 0.01 0.01 0.01 0.01 0.01 0.01 0.02 0.02 0.02 0.02 0.02 0.02 0.02 0.02 0.02 0.01 0.01 0.01 0.01 0.01 0.02 0.02 0.02 0.02 0.03 0.03
0.02 0.02 0.02 0.02 0.02 0.02 0.02 0.02 0.02 0.03 0.03 0.03 0.03 0.03 0.02 0.01 0.01 0.01 0.01 0.01 0.01 0.01 0.01 0.02 0.02 0.02 0.02 0.02 0.02 0.02 0.02 0.02 0.02 0.01 0.01 0.01 0.01 0.02 0.02 0.03 0.03 0.03 0.04
0.01 0.02 0.02 0.02 0.02 0.03 0.03 0.03 0.03 0.03 0.02 0.02 0.02 0.02 0.02 0.02 0.02 0.01 0.01 0.01 0.01 0.02 0.02 0.03 0.02 0.02 0.02 0.03 0.03 0.02 0.02 0.02 0.02 0.02 0.02 0.02 0.02 0.02 0.03 0.03 0.03 0.03 0.03
0.02 0.02 0.02 0.03 0.03 0.03 0.03 0.02 0.02 0.02 0.01 0.01 0.01 0.01 0.01 0.01 0.01 0.01 0.02 0.02 0.02 0.02 0.02 0.02 0.02 0.02 0.02 0.02 0.02 0.02 0.02 0.02 0.02 0.02 0.02 0.02 0.02 0.02 0.02 0.02 0.03 0.03 0.03
0.03 0.03 0.03 0.03 0.03 0.03 0.02 0.02 0.01 0.01 0.01 0.01 0.01 0.01 0.01 0.01 0.01 0.01 0.01 0.01 0.01 0.01 0.01 0.02 0.02 0.02 0.02 0.02 0.02 0.03 0.03 0.02 0.02 0.02 0.02 0.02 0.01 0.01 0.01 0.02 0.02 0.02 0.03
MSLP
1022.69 1022.77 1022.90 1023.06 1023.22 1023.36 1023.47 1023.54 1023.58 1023.61 1023.65 1023.68 1023.72 1023.77 1023.83 1023.88 1023.94 1024.01 1024.09 1024.18 1024.29 1024.40 1024.52 1024.64 1024.74 1024.82 1024.88 1024.94 1025.01 1025.10 1025.24 1025.42 1025.65 1025.90 1026.15 1026.36 1026.51 1026.57 1026.54 1026.42 1026.24 1026.02 1025.81
1023.14 1023.18 1023.26 1023.36 1023.46 1023.56 1023.63 1023.69 1023.73 1023.76 1023.80 1023.83 1023.87 1023.91 1023.96 1024.01 1024.07 1024.14 1024.22 1024.33 1024.45 1024.58 1024.71 1024.82 1024.91 1024.98 1025.04 1025.09 1025.16 1025.26 1025.42 1025.64 1025.90 1026.20 1026.49 1026.73 1026.91 1026.99 1026.96 1026.83 1026.63 1026.39 1026.15
1023.65 1023.68 1023.73 1023.78 1023.84 1023.89 1023.92 1023.94 1023.96 1023.98 1023.99 1024.01 1024.03 1024.05 1024.07 1024.10 1024.14 1024.20 1024.29 1024.40 1024.54 1024.68 1024.82 1024.95 1025.05 1025.13 1025.19 1025.26 1025.34 1025.46 1025.65 1025.89 1026.19 1026.51 1026.83 1027.11 1027.31 1027.41 1027.40 1027.28 1027.08 1026.83 1026.58
1024.17 1024.21 1024.26 1024.29 1024.31 1024.31 1024.31 1024.30 1024.28 1024.27 1024.25 1024.23 1024.21 1024.19 1024.17 1024.16 1024.18 1024.21 1024.29 1024.40 1024.54 1024.70 1024.86 1025.01 1025.13 1025.23 1025.32 1025.40 1025.50 1025.64 1025.84 1026.10 1026.42 1026.77 1027.11 1027.41 1027.64 1027.77 1027.78 1027.69 1027.52 1027.29 1027.04
1024.63 1024.72 1024.78 1024.81 1024.81 1024.78 1024.75 1024.70 1024.66 1024.61 1024.55 1024.50 1024.43 1024.36 1024.29 1024.23 1024.19 1024.19 1024.24 1024.33 1024.47 1024.63 1024.81 1024.97 1025.12 1025.25 1025.36 1025.46 1025.58 1025.74 1025.95 1026.22 1026.54 1026.89 1027.25 1027.57 1027.82 1027.98 1028.04 1028.00 1027.86 1027.68 1027.46
1025.01 1025.16 1025.25 1025.28 1025.28 1025.24 1025.19 1025.13 1025.06 1024.98 1024.90 1024.80 1024.69 1024.56 1024.43 1024.32 1024.22 1024.17 1024.17 1024.23 1024.34 1024.49 1024.66 1024.84 1025.01 1025.16 1025.29 1025.41 1025.54 1025.71 1025.92 1026.18 1026.50 1026.85 1027.21 1027.54 1027.82 1028.02 1028.13 1028.14 1028.08 1027.96 1027.79
1025.29 1025.48 1025.61 1025.66 1025.67 1025.64 1025.59 1025.52 1025.45 1025.36 1025.26 1025.13 1024.98 1024.81 1024.62 1024.44 1024.28 1024.16 1024.10 1024.11 1024.18 1024.30 1024.45 1024.62 1024.79 1024.95 1025.09 1025.22 1025.36 1025.52 1025.73 1025.99 1026.29 1026.63 1026.99 1027.33 1027.64 1027.88 1028.04 1028.13 1028.14 1028.09 1028.00
1025.46 1025.70 1025.85 1025.93 1025.95 1025.94 1025.90 1025.85 1025.79 1025.71 1025.61 1025.48 1025.30 1025.09 1024.86 1024.61 1024.39 1024.20 1024.06 1024.00 1024.01 1024.07 1024.19 1024.33 1024.48 1024.62 1024.76 1024.90 1025.04 1025.20 1025.40 1025.64 1025.94 1026.27 1026.62 1026.98 1027.31 1027.59 1027.81 1027.97 1028.06 1028.09 1028.08
1025.56 1025.82 1025.99 1026.09 1026.13 1026.14 1026.13 1026.11 1026.08 1026.02 1025.94 1025.80 1025.62 1025.39 1025.12 1024.82 1024.53 1024.27 1024.06 1023.92 1023.85 1023.84 1023.90 1023.99 1024.10 1024.22 1024.35 1024.47 1024.61 1024.77 1024.97 1025.21 1025.50 1025.83 1026.18 1026.55 1026.90 1027.22 1027.49 1027.71 1027.87 1027.97 1028.03
1025.61 1025.87 1026.05 1026.16 1026.22 1026.26 1026.28 1026.29 1026.29 1026.27 1026.21 1026.09 1025.91 1025.67 1025.37 1025.04 1024.69 1024.37 1024.08 1023.86 1023.70 1023.62 1023.60 1023.63 1023.70 1023.78 1023.88 1023.99 1024.13 1024.29 1024.49 1024.74 1025.03 1025.37 1025.73 1026.11 1026.48 1026.83 1027.14 1027.40 1027.61 1027.78 1027.89
1025.61 1025.87 1026.05 1026.17 1026.25 1026.31 1026.36 1026.41 1026.44 1026.44 1026.40 1026.31 1026.13 1025.89 1025.58 1025.22 1024.83 1024.45 1024.10 1023.81 1023.58 1023.42 1023.32 1023.28 1023.29 1023.33 1023.40 1023.50 1023.63 1023.80 1024.01 1024.27 1024.58 1024.93 1025.31 1025.70 1026.09 1026.46 1026.79 1027.08 1027.33 1027.53 1027.68
1025.57 1025.83 1026.01 1026.14 1026.24 1026.32 1026.40 1026.46 1026.51 1026.54 1026.51 1026.42 1026.26 1026.01 1025.69 1025.32 1024.91 1024.49 1024.10 1023.74 1023.45 1023.22 1023.05 1022.94 1022.89 1022.89 1022.93 1023.01 1023.14 1023.31 1023.54 1023.82 1024.15 1024.52 1024.92 1025.33 1025.73 1026.11 1026.46 1026.77 1027.03 1027.25 1027.42
1025.50 1025.76 1025.95 1026.09 1026.21 1026.30 1026.38 1026.46 1026.51 1026.54 1026.51 1026.42 1026.25 1026.00 1025.68 1025.30 1024.88 1024.45 1024.03 1023.64 1023.29 1023.00 1022.78 1022.61 1022.51 1022.46 1022.46 1022.53 1022.65 1022.83 1023.07 1023.37 1023.73 1024.12 1024.54 1024.96 1025.38 1025.77 1026.13 1026.44 1026.71 1026.93 1027.11
1025.38 1025.65 1025.86 1026.02 1026.14 1026.24 1026.33 1026.39 1026.43 1026.44 1026.39 1026.28 1026.10 1025.84 1025.52 1025.14 1024.73 1024.29 1023.86 1023.45 1023.08 1022.75 1022.48 1022.27 1022.11 1022.02 1021.99 1022.02 1022.13 1022.31 1022.56 1022.88 1023.25 1023.66 1024.10 1024.55 1024.98 1025.38 1025.75 1026.07 1026.35 1026.58 1026.77
1025.19 1025.49 1025.73 1025.91 1026.05 1026.15 1026.22 1026.26 1026.27 1026.24 1026.16 1026.01 1025.81 1025.54 1025.21 1024.83 1024.43 1024.01 1023.58 1023.18 1022.79 1022.45 1022.14 1021.89 1021.68 1021.54 1021.47 1021.47 1021.56 1021.72 1021.97 1022.29 1022.67 1023.10 1023.56 1024.02 1024.48 1024.91 1025.30 1025.64 1025.93 1026.18 1026.39
1024.95 1025.28 1025.55 1025.75 1025.90 1026.01 1026.06 1026.07 1026.04 1025.95 1025.82 1025.63 1025.38 1025.09 1024.76 1024.39 1024.00 1023.60 1023.19 1022.79 1022.41 1022.05 1021.72 1021.43 1021.19 1021.00 1020.88 1020.84 1020.88 1021.02 1021.24 1021.56 1021.94 1022.38 1022.86 1023.35 1023.84 1024.30 1024.73 1025.11 1025.44 1025.73 1025.97
1024.65 1025.02 1025.31 1025.54 1025.71 1025.81 1025.85 1025.82 1025.74 1025.60 1025.40 1025.16 1024.88 1024.56 1024.21 1023.84 1023.46 1023.08 1022.69 1022.31 1021.93 1021.57 1021.22 1020.90 1020.61 1020.37 1020.19 1020.10 1020.10 1020.19 1020.39 1020.68 1021.05 1021.50 1021.99 1022.52 1023.04 1023.56 1024.04 1024.48 1024.88 1025.23 1025.53
1024.31 1024.71 1025.03 1025.29 1025.46 1025.56 1025.57 1025.52 1025.39 1025.19 1024.94 1024.65 1024.32 1023.97 1023.60 1023.23 1022.86 1022.48 1022.11 1021.74 1021.36 1020.99 1020.62 1020.26 1019.93 1019.64 1019.41 1019.26 1019.20 1019.25 1019.41 1019.67 1020.03 1020.48 1020.99 1021.55 1022.12 1022.70 1023.26 1023.78 1024.26 1024.69 1025.07
1023.95 1024.37 1024.71 1024.98 1025.17 1025.26 1025.26 1025.17 1025.00 1024.75 1024.45 1024.11 1023.74 1023.35 1022.96 1022.58 1022.20 1021.83 1021.46 1021.08 1020.70 1020.31 1019.92 1019.53 1019.16 1018.82 1018.54 1018.33 1018.22 1018.22 1018.34 1018.58 1018.92 1019.37 1019.90 1020.49 1021.12 1021.77 1022.40 1023.02 1023.60 1024.12 1024.58
1023.58 1024.00 1024.36 1024.63 1024.82 1024.91 1024.89 1024.78 1024.57 1024.29 1023.95 1023.56 1023.15 1022.73 1022.32 1021.91 1021.52 1021.13 1020.74 1020.36 1019.96 1019.55 1019.13 1018.70 1018.29 1017.92 1017.59 1017.34 1017.20 1017.16 1017.24 1017.46 1017.79 1018.25 1018.80 1019.42 1020.10 1020.82 1021.53 1022.24 1022.91 1023.53 1024.09
1023.21 1023.62 1023.97 1024.25 1024.43 1024.51 1024.48 1024.34 1024.11 1023.80 1023.42 1023.00 1022.56 1022.10 1021.65 1021.22 1020.79 1020.38 1019.97 1019.55 1019.13 1018.69 1018.24 1017.79 1017.36 1016.95 1016.60 1016.33 1016.16 1016.10 1016.17 1016.37 1016.71 1017.17 1017.74 1018.40 1019.13 1019.90 1020.69 1021.47 1022.23 1022.94 1023.58
1022.83 1023.22 1023.55 1023.81 1023.98 1024.04 1024.00 1023.85 1023.60 1023.26 1022.86 1022.41 1021.93 1021.44 1020.96 1020.48 1020.02 1019.57 1019.12 1018.68 1018.22 1017.75 1017.28 1016.81 1016.36 1015.95 1015.59 1015.31 1015.14 1015.08 1015.16 1015.37 1015.71 1016.19 1016.78 1017.47 1018.23 1019.05 1019.90 1020.75 1021.58 1022.35 1023.06
1022.42 1022.78 1023.08 1023.31 1023.46 1023.50 1023.43 1023.26 1022.99 1022.64 1022.21 1021.74 1021.23 1020.71 1020.19 1019.68 1019.18 1018.69 1018.20 1017.71 1017.22 1016.73 1016.24 1015.77 1015.32 1014.91 1014.57 1014.31 1014.16 1014.13 1014.23 1014.46 1014.83 1015.33 1015.94 1016.66 1017.46 1018.31 1019.19 1020.09 1020.96 1021.79 1022.54
1021.97 1022.29 1022.55 1022.74 1022.85 1022.86 1022.77 1022.58 1022.29 1021.91 1021.47 1020.97 1020.44 1019.90 1019.35 1018.80 1018.26 1017.73 1017.20 1016.68 1016.16 1015.65 1015.16 1014.68 1014.25 1013.87 1013.56 1013.34 1013.23 1013.25 1013.39 1013.66 1014.06 1014.59 1015.23 1015.97 1016.79 1017.67 1018.58 1019.49 1020.39 1021.25 1022.04
1021.47 1021.74 1021.95 1022.09 1022.15 1022.12 1022.00 1021.78 1021.46 1021.07 1020.61 1020.10 1019.55 1018.99 1018.41 1017.84 1017.27 1016.71 1016.15 1015.60 1015.06 1014.54 1014.05 1013.58 1013.17 1012.83 1012.57 1012.41 1012.36 1012.42 1012.62 1012.95 1013.40 1013.96 1014.64 1015.40 1016.24 1017.13 1018.05 1018.98 1019.89 1020.76 1021.57
1020.92 1021.13 1021.28 1021.37 1021.38 1021.30 1021.13 1020.87 1020.53 1020.12 1019.65 1019.13 1018.57 1018.00 1017.41 1016.82 1016.24 1015.65 1015.08 1014.51 1013.97 1013.44 1012.95 1012.51 1012.13 1011.83 1011.62 1011.51 1011.53 1011.66 1011.92 1012.30 1012.80 1013.41 1014.12 1014.91 1015.77 1016.67 1017.60 1018.53 1019.45 1020.32 1021.14
Thickness
5696 5695 5694 5692 5691 5690 5688 5686 5685 5684 5682 5680 5679 5677 5675 5673 5672 5670 5667 5666 5664 5662 5661 5660 5658 5657 5655 5654 5653 5651 5649 5646 5639 5636 5636 5636 5636 5635 5633 5632 5630 5628 5626
5695 5693 5692 5691 5689 5687 5686 5685 5683 5682 5680 5679 5677 5675 5673 5671 5669 5667 5665 5663 5661 5659 5658 5657 5655 5654 5652 5651 5649 5647 5645 5643 5639 5634 5632 5632 5631 5630 5629 5627 5625 5624 5622
5693 5690 5689 5687 5686 5685 5684 5683 5681 5680 5678 5676 5675 5673 5671 5669 5667 5665 5663 5661 5659 5657 5656 5654 5652 5651 5648 5647 5645 5643 5641 5640 5637 5633 5630 5628 5627 5626 5623 5622 5620 5618 5617
5689 5687 5685 5684 5683 5682 5681 5680 5678 5677 5675 5673 5672 5670 5669 5666 5664 5663 5660 5658 5656 5655 5653 5652 5650 5648 5646 5644 5642 5640 5637 5634 5632 5629 5626 5623 5622 5620 5618 5615 5613 5612 5610
5685 5682 5681 5680 5679 5678 5676 5675 5674 5673 5672 5670 5668 5666 5665 5663 5661 5659 5657 5655 5653 5651 5650 5648 5647 5646 5645 5643 5640 5636 5634 5630 5626 5623 5620 5618 5616 5614 5612 5611 5609 5606 5604
5680 5678 5677 5676 5674 5673 5672 5671 5669 5668 5666 5665 5664 5662 5660 5660 5658 5657 5655 5652 5649 5647 5645 5644 5643 5642 5641 5639 5637 5635 5632 5628 5623 5619 5616 5613 5612 5611 5609 5607 5604 5601 5598
5675 5674 5673 5672 5670 5669 5668 5666 5664 5663 5661 5660 5658 5657 5656 5655 5654 5653 5651 5648 5645 5643 5641 5640 5639 5638 5636 5634 5632 5630 5628 5626 5624 5619 5614 5611 5609 5608 5606 5604 5600 5597 5595
5671 5669 5668 5667 5665 5664 5663 5661 5660 5659 5657 5655 5653 5653 5651 5651 5650 5649 5647 5644 5641 5639 5637 5635 5634 5632 5631 5628 5626 5624 5621 5620 5618 5616 5614 5611 5609 5607 5605 5602 5599 5594 5591
5665 5664 5663 5662 5661 5659 5658 5657 5656 5654 5652 5650 5649 5648 5646 5646 5646 5644 5642 5638 5635 5634 5633 5631 5630 5628 5627 5624 5621 5618 5615 5614 5613 5612 5610 5608 5606 5603 5601 5597 5592 5588 5583
5660 5660 5659 5658 5657 5655 5654 5653 5651 5650 5648 5646 5644 5643 5642 5641 5641 5639 5637 5633 5630 5628 5627 5626 5626 5624 5622 5620 5616 5613 5610 5608 5607 5605 5603 5602 5599 5597 5595 5592 5588 5582 5578
5657 5656 5655 5654 5652 5651 5649 5648 5647 5645 5643 5641 5639 5638 5637 5637 5636 5634 5632 5629 5626 5623 5621 5620 5620 5620 5618 5616 5613 5610 5608 5605 5602 5599 5596 5593 5591 5589 5587 5585 5582 5578 5573
5651 5650 5649 5648 5648 5647 5644 5643 5641 5639 5637 5634 5633 5631 5631 5631 5631 5629 5628 5626 5623 5620 5618 5616 5615 5615 5613 5611 5608 5606 5604 5600 5596 5592 5589 5586 5583 5581 5580 5577 5575 5572 5569
5644 5643 5642 5642 5642 5641 5639 5637 5635 5633 5631 5629 5627 5625 5624 5624 5624 5624 5622 5621 5619 5616 5614 5613 5611 5609 5607 5605 5603 5600 5597 5593 5589 5585 5582 5579 5578 5575 5573 5570 5567 5564 5561
5638 5636 5635 5634 5634 5634 5633 5632 5630 5628 5626 5624 5623 5621 5619 5617 5617 5616 5615 5613 5611 5609 5607 5606 5604 5601 5599 5597 5595 5592 5589 5586 5583 5579 5576 5573 5570 5567 5564 5561 5557 5554 5551
5632 5630 5629 5628 5627 5626 5625 5625 5625 5625 5624 5622 5620 5618 5614 5612 5613 5612 5609 5607 5605 5602 5599 5596 5593 5591 5588 5586 5584 5583 5580 5577 5574 5571 5568 5565 5562 5559 5556 5553 5549 5545 5541
5625 5624 5622 5621 5620 5619 5618 5617 5618 5618 5618 5618 5617 5614 5613 5612 5609 5607 5605 5603 5599 5596 5591 5588 5585 5583 5580 5578 5576 5573 5571 5569 5566 5564 5561 5557 5554 5551 5547 5544 5540 5536 5532
5619 5618 5616 5615 5613 5612 5610 5609 5608 5608 5609 5609 5608 5607 5606 5604 5602 5600 5597 5594 5591 5588 5583 5580 5577 5575 5573 5570 5568 5566 5563 5561 5558 5556 5553 5550 5546 5543 5539 5535 5531 5527 5524
5614 5613 5611 5608 5607 5605 5604 5603 5602 5600 5598 5597 5598 5598 5597 5595 5594 5591 5588 5584 5579 5576 5574 5572 5569 5567 5564 5562 5560 5557 5555 5552 5549 5547 5544 5541 5538 5534 5530 5527 5522 5518 5515
5606 5605 5603 5601 5600 5598 5596 5595 5594 5593 5590 5588 5587 5587 5587 5585 5584 5581 5577 5574 5571 5568 5565 5563 5561 5559 5556 5554 5551 5549 5546 5544 5541 5538 5535 5532 5529 5525 5522 5518 5514 5510 5506
5598 5598 5596 5593 5591 5589 5588 5586 5585 5584 5582 5580 5579 5578 5576 5574 5571 5569 5566 5564 5563 5560 5558 5555 5553 5551 5548 5546 5543 5541 5538 5535 5532 5530 5527 5523 5520 5516 5513 5509 5505 5501 5497
5589 5587 5587 5584 5582 5581 5579 5578 5577 5575 5573 5572 5571 5570 5568 5565 5563 5560 5558 5555 5553 5552 5549 5547 5544 5542 5539 5537 5535 5532 5529 5527 5524 5521 5518 5514 5510 5506 5503 5499 5496 5492 5489
5580 5578 5576 5575 5573 5572 5571 5569 5568 5566 5565 5563 5561 5559 5558 5555 5553 5550 5548 5546 5544 5542 5540 5538 5535 5533 5530 5528 5525 5523 5520 5517 5515 5511 5508 5505 5501 5497 5494 5490 5486 5483 5479
5572 5570 5567 5566 5564 5563 5562 5560 5559 5557 5556 5554 5552 5549 5547 5544 5543 5541 5539 5537 5535 5533 5530 5528 5526 5523 5520 5518 5516 5513 5510 5508 5505 5502 5498 5494 5491 5488 5484 5481 5478 5474 5471
5564 5561 5559 5557 5555 5554 5552 5551 5550 5548 5547 5545 5543 5541 5538 5536 5534 5532 5530 5528 5526 5523 5520 5518 5516 5513 5511 5508 5505 5503 5500 5498 5495 5492 5488 5485 5481 5478 5475 5471 5468 5465 5463
5555 5553 5550 5549 5547 5546 5544 5543 5541 5540 5538 5536 5534 5532 5529 5527 5525 5523 5520 5518 5516 5513 5511 5508 5506 5503 5501 5498 5495 5492 5490 5487 5483 5480 5478 5475 5472 5469 5466 5462 5459 5456 5454
5546 5545 5542 5540 5538 5537 5536 5534 5532 5530 5528 5527 5525 5522 5520 5517 5515 5513 5510 5508 5506 5503 5501 5498 5496 5493 5491 5488 5485 5482 5479 5476 5473 5470 5467 5464 5462 5459 5456 5453 5451 5448 5445